Погода в Лепеле

Погода в Лепеле : погода сейчас, прогноз погоды и архив. Всё, что Вы хотите узнать о погоде в Лепеле!

Хотите узнать прогноз погоды в Лепеле? Тогда Вам сюда: Погода в Лепеле

Поиск расширенной информации на нашем сайте:

Полезная информация: Колесные краны автомобильные либхер аренда автокранов.

Другие новости

Новости СМИ2

Главная страница сайта

Новости сайта

03.07.2017

Напоминаем, что на нашем специализированном сайте Метеоцентр.Азия вы можете получить высокодетализированные автоматические прогнозы погоды по пунктам России, СНГ и мира в авиационном формате (включающие направление и скорость ветра, видимость, явления погоды, количество и форму облачности, нижнюю и верхнюю границу облачности).

Рекомендуем: диски bmw

Погода в Лепеле - сегодня

Время (UTC), дата Ветер
(°,м/с) 
Видим.   Явления Облачность Т
(°С)
Тd
(°С)
f(%) Тe
(°С)
Pmin
(гПа)
dP
(гПа)
Po
(мм)
O2
(г/м3)
Тmin Tmax R s Состояние
почвы
18 04.08.18 260 (З) 20000 м    ясно 
+24.2 +15.6 59 +34  1012.2    744  272    +28.4       
06 05.08.18 300 (СЗ) 17000 м    3/0 верхняя 
[Ci sp]
+21.7 +16.8 74 +34  1010.7    743  274  +17.8         
18 05.08.18 250 (З) 2{10}  15000 м  {гроза, ливн. осадки}  3/0 верхняя 
[Ci sp]
+19 +16.9 88 +32  1009.8    742  276    +27     
06 06.08.18 250 (З) 20000 м    8/0 верхняя 
[Ci fib]
+19 +15.6 81 +30  1012    744  277  +15.5         
18 06.08.18 310 (СЗ) 3{10}  17000 м    9/9 870 м 
[Sc]
+19 +13.9 72 +27  1011.7    744  277    +25.5       
06 07.08.18 360 (С) 20000 м    3/0 средняя 
[Ac trans]
+17.5 +13 75 +24  1014.2    745  280  +14.5         
18 07.08.18 280 (З) 1{11}  17000 м    3/3 600 м средняя 
[Sc diur, vesp|Ac trans]
+18.8 +12.7 68 +25  1016.8    747  279    +23       
06 08.08.18 210 (ЮЗ) 20000 м    ясно 
+19.4 +13.6 69 +27  1020.4    750  279  +12         
18 08.08.18 190 (Ю) 17000 м    3/3 600 м 
[Sc diur, vesp]
+22.5 +14.8 62 +31  1020.5    750  276    +26.2       
06 09.08.18 210 (ЮЗ) 20000 м    ясно 
+20.4 +14.2 68 +28  1024.5    753  279  +14.3         
18 09.08.18 150 (ЮВ) 17000 м    1/0 верхняя 
[Ci fib]
+22.8 +14.7 60 +31  1024.3    753  277    +28.4       
06 10.08.18 190 (Ю) 20000 м    1/0 верхняя 
[Ci fib]
+20.6 +12.6 60 +25  1026.9    755  280  +15.5         
18 10.08.18 170 (Ю) 2{11}  17000 м    ясно 
+22.1 +12.4 54 +27  1022.5    752  278    +27.4       
06 11.08.18 210 (ЮЗ) 20000 м    8/8 720 м 
[Sc]
+19.3 +11.3 60 +23  1021.6    751  280  +15.6         
18 11.08.18 180 (Ю) 1{11}  17000 м    ясно 
+22.3 +11.9 52 +26  1015.8    747  276    +27.6       
06 12.08.18 270 (З) 20000 м  {ливн. осадки}  9/4 300 м верхняя 
[Sc|Ci fib]
+16.1 +14.9 93 +25  1014.5    746  281  +16       
18 12.08.18 210 (ЮЗ) 2{15}  17000 м    1/1 600 м 
[Sc diur, vesp]
+17.5 +7.8 53 +18  1014.2    745  281    +22.5       
06 13.08.18 220 (ЮЗ) 20000 м    9/0 средняя 
[Ac trans]
+14 +9.9 76 +16  1014.1    745  284  +12         
18 13.08.18 180 (Ю) 16000 м  в посл. час дождь  10/4 600 м средняя 
[Sc|As op]
+14.9 +13.4 91 +22  1013.3    744  282    +19.2     
18 14.08.18 160 (Ю) 16000 м    9/0 средняя 
[Ac As]
+21.8 +15.4 67 +31  1010.6    743  274    +26.2       
06 15.08.18 260 (З) 17000 м  {гроза, ливн. осадки}  9/9 600 м 
[Sc]
+18.6 +16.8 89 +32  1009.9    742  276  +17.3       
18 15.08.18 180 (Ю) 2{14}  15000 м  {ливн. осадки}  8/0 средняя 
[Ac trans]
+17.8 +16.9 94 +31  1013.5    745  278    +23.7     
06 16.08.18 310 (СЗ) 8000 м  дымка  10/10 240 м 
[St]
+16.8 +16.3 97 +29  1017.3    748  280  +15.8         
18 16.08.18 030 (СВ) 14000 м    4/0 средняя 
[Ac trans]
+19 +16.9 88 +33  1020.2    750  279    +22.4       
06 17.08.18 130 (ЮВ) 17000 м    3/3 600 м 
[Sc]
+16.2 +14.6 90 +26  1022.4    751  283  +14         
Время (UTC), дата Ветер
(°,м/с) 
Видим.   Явления Облачность Т
(°С)
Тd
(°С)
f(%) Тe
(°С)
Pmin
(гПа)
dP
(гПа)
Po
(мм)
O2
(г/м3)
Тmin Tmax R s Состояние
почвы

Для получения пояснительной информации подведите курсор к названию столбца.

ПОГОДА в Лепеле - архив

Всё, что Вы хотите узнать о погоде в Лепеле - удобно и подробно!

Выберите нужную дату (начиная с 1 января 2015* года) и нажмите кнопку "Найти".
Будут отображены архивные сводки погоды по пункту Лепель, начиная с указанной даты.


Отображать данные в формате CSV (для использования в таблицах Excel)


Внимание! Наш архив погоды предназначен исключительно для личного некоммерческого использования в познавательных целях. Если Вам необходимы официальные справки о состоянии погоды (для производственных, юридических, коммерческих и т.п. целей), обращайтесь в органы Росгидромета.

*Примечание: данная дата относится к архиву по метеостанциям СССР (Россия, СНГ, Балтия).
Архив по метеостанциям Зарубежной Европы и Азии (кроме Китая) хранится 10 дней, по другим регионам земного шара (Китай, Африка, Америка, Австралия, Океания) - 1 день.

Лепель - район местоположения метеостанции


Название, широта, долгота, высота метеостанции:
Лепель 54.9°ш. 28.7°д. 174 м над ур. моря [Беларусь]

Дополнительная информация

В oтличие oт бoльшинства пoгoдных сайтoв мы публикуем пoдрoбную метеoинфoрмацию в детальнoм прoфессиoнальнoм фoрмате.

Характеристики температуры и влажнoсти вoздуха измеряются на высoте 2 м в тени вдали oт зданий и деревьев.
Скoрoсть ветра измеряется на высoте 10 м (на урoвне рoста челoвека скoрoсть ветра ниже в 1.5-2 раза). Если метеoстанция нахoдится в гoрoде или в лесу, тo скoрoсть ветра занижена на 2-4 м/с пo сравнению с oткрытым местoм. Скoрoсть ветра над акватoриями крупных рек и oзёр, а также на вершинах хoлмoв на 2-5 м/с выше, чем в oбычных услoвиях.
Атмoсфернoе давление в разных тoчках местнoсти мoжет значительнo oтличаться oт давления на метеoстанции, в зависимoсти oт услoвий рельефа (при пoдъёме на 10 м давление пoнижается примернo на 1 мм рт.ст.).